Regional Weather Roundup
Issued by NWS

Home | Current Version | Previous Version | Graphics & Text | Print | Product List | Glossary On
Versions: 1 2 3 4 5 6 7 8 9 10 11 12 13 14 15 16 17 18 19 20 21 22 23 24 25 26 27 28 29 30 31 32 33 34 35 36 37 38 39 40 41 42 43 44 45 46 47 48 49 50
000
ASUS43 KMKX 230211
RWRWI

WISCONSIN REGIONAL WEATHER ROUNDUP
NATIONAL WEATHER SERVICE MILWAUKEE/SULLIVAN WI
900 PM CDT TUE JUL 22 2014

NOTE: "FAIR" INDICATES FEW OR NO CLOUDS BELOW 12,000 FEET WITH NO
SIGNIFICANT WEATHER AND/OR OBSTRUCTIONS TO VISIBILITY.

WIZ001-002-006>008-014>016-023>028-230300-
NORTHWEST WISCONSIN

CITY           SKY/WX    TMP DP  RH WIND       PRES   REMARKS
SUPERIOR ARPT  FAIR      66  56  70 CALM      30.12R
ASHLAND        FAIR      61  59  93 CALM      30.12R
HAYWARD        FAIR      68  59  73 CALM      30.13R
SIREN          FAIR      70  57  64 NW5       30.13R
RICE LAKE      MOCLDY    73  59  62 N6        30.13R
LADYSMITH      FAIR      69  61  76 NE7       30.13R
EAU CLAIRE     FAIR      72  63  73 NW5       30.08R
MENOMONIE      FAIR      74  61  64 NW6       30.09R
NEW RICHMOND   FAIR      70  57  63 NW6       30.12S
OSCEOLA        FAIR      73  57  58 NW6       30.14S
$$

WIZ003>005-009-010-017-018-230300-
NORTH CENTRAL WISCONSIN

CITY           SKY/WX    TMP DP  RH WIND       PRES   REMARKS
WOODRUFF       FAIR      63  58  82 N5        30.13R
RHINELANDER    FAIR      63  57  81 N3        30.13R
EAGLE RIVER    FAIR      61  56  83 N6        30.12R
LAND O LAKES   FAIR      62  58  86 N6        30.13S
PHILLIPS       FAIR      65  59  81 CALM      30.12R
TOMAHAWK       FAIR      62  57  83 CALM      30.13R
MEDFORD        FAIR      66  58  76 NE7       30.12R
MERRILL        FAIR      64  59  83 N5        30.11R
$$

WIZ029-030-035-036-043>047-230300-
CENTRAL WISCONSIN

CITY           SKY/WX    TMP DP  RH WIND       PRES   REMARKS
WAUSAU         FAIR      69  59  70 VRB6G17   30.08R
MOSINEE        CLEAR     70  61  73 N13G18    30.09R
MARSHFIELD     FAIR      72  60  66 N12       30.08R
STEVENS POINT  FAIR      71  58  65 N14G21    30.07R
WAUPACA        FAIR      78  62  59 N17G24    30.03R
WAUTOMA        FAIR      77  65  66 N7        30.02R
WISC RAPIDS    MOCLDY    75  61  61 N14G24    30.07R
CAMP DOUGLAS   PTCLDY    73  64  73 NW7       30.04R
$$

WIZ011>013-019>022-031-037>040-048>050-230300-
NORTHEAST WISCONSIN

CITY           SKY/WX    TMP DP  RH WIND       PRES   REMARKS
ANTIGO         FAIR      63  59  86 N10G17    30.10R
STURGEON BAY   MOCLDY    70  61  73 N18G25    30.01R
GREEN BAY      MOCLDY    76  64  66 N21G30    30.00R
MANITOWOC      FAIR      79  65  62 N16G24    29.96R HX  81
APPLETON       PTCLDY    75  61  60 N17G24    30.00R
CLINTONVILLE   FAIR      72  61  68 N14G21    30.04R
OSHKOSH        FAIR      78  64  61 N18       29.99R HX  80
$$

WIZ032>034-041-042-053>061-230300-
SOUTHWEST WISCONSIN

CITY           SKY/WX    TMP DP  RH WIND       PRES   REMARKS
LA CROSSE      FAIR      78  63  59 N10       30.04R HX  80
SPARTA         FAIR      74  61  62 NW3       30.06R
VIROQUA        FAIR      74  63  68 N9        30.07R
BOSCOBEL       FAIR      80  65  59 N7        30.02R HX  82
PRAIRIE DU CHI FAIR      80  64  58 NW7       30.02R HX  81
PLATTEVILLE    FAIR      79  68  67 N10       30.03R HX  81
$$

WIZ056-057-062-063-064-067-068-230300-
SOUTH CENTRAL WISCONSIN

CITY           SKY/WX    TMP DP  RH WIND       PRES   REMARKS
BARABOO/DELLS  MOCLDY    78  62  58 N5        30.03R
LONE ROCK      FAIR      83  67  58 NW9       30.01R HX  85
WATERTOWN      FAIR      80  68  66 NW12      29.98R HX  83
MADISON        FAIR      80  67  64 NW7       29.99R HX  82
MIDDLETON      FAIR      79  66  62 NW7       30.01R HX  81
MONROE         FAIR      81  72  74 N9G17     30.00R HX  84
JANESVILLE     MOCLDY    84  72  65 N9        29.96R HX  89
$$

WIZ051-052-058>065-066-070>072-230300-
SOUTHEAST WISCONSIN

CITY           SKY/WX    TMP DP  RH WIND       PRES   REMARKS
MILWAUKEE      MOCLDY    83  70  64 NW12      29.92R THUNDER HX  87
WAUKESHA       PTCLDY    81  68  65 NW10G20   29.96R HX  83
MILWAUKEE/TIMM PTCLDY    82  64  54 NW17      29.94R HX  84
RACINE         FAIR      83  76  79 SW7       29.93F HX  91
BURLINGTON     HVY RAIN  80  75  86 NW10      29.95R HX  84
KENOSHA        FAIR      82  77  84 SW8       29.93S HX  90
FOND DU LAC    FAIR      79  64  60 N13       29.99R HX  81
SHEBOYGAN      FAIR      80  66  62 N18G29    29.95R HX  82
WEST BEND      FAIR      79  63  57 NW9       29.96R HX  80
JUNEAU         FAIR      78  63  58 NW10      30.00R HX  80
$$

LSZ147-162-230300-
LAKE SUPERIOR

STATION/POSITION TIME  TEMP    WIND        PRES    WAVE
                       AIR SEA DIR/SP/G            HT/PER
                 (UTC) (F)     (DEG/KT/KT) (MB)    (FT/S)
W MID LAKE BUOY  0150   51 40  190/  6/  6 1019.2R   1/ 4
PORT WING        0100   69      40/  3/  7 1019.3R
SAXON HARBOR     0100             CALM     1019.6R
$$

LMZ867-665-643>646-230300-
LAKE MICHIGAN

STATION/POSITION TIME  TEMP    WIND        PRES    WAVE
                       AIR SEA DIR/SP/G            HT/PER
                 (UTC) (F)     (DEG/KT/KT) (MB)    (FT/S)
N MID LAKE BUOY  0150   62 57  340/ 23/ 29 1014.1R   5/ 6
NORTHPORT PIER   0100   69     330/ 19/ 26 1014.9R
KEWAUNEE LAKESHO 0100          340/ 12/ 17 1014.4R
SHEBOYGAN LAKESH 0200           10/ 15/ 20 1014.3R
PORT WASHINGTON  0100   86     300/  7/ 10 1013.2S
ATWATER BUOY     0200   62     350/  6     1014.4R
MILWAUKEE LAKESH 0100   86     250/ 10/ 13   N/A
S MID LAKE BUOY  0150   71 66  210/ 10/ 12 1012.5F   1/ 4
KENOSHA   LAKESH 0200   86     250/ 10/ 14   N/A
$$

TC  - TEMPERATURE IN CELSIUS
VSB - VISIBILITY IN STATUTE MILES
WCI - WIND CHILL INDEX
HX  - HEAT INDEX



USA.gov is the U.S. government's official web portal to all federal, state and local government web resources and services.